Regional Weather Roundup
Issued by NWS

Home | Current Version | Previous Version | Graphics & Text | Print | Product List | Glossary Off
Versions: 1 2 3 4 5 6 7 8 9 10 11 12 13 14 15 16 17 18 19 20 21 22 23 24 25 26 27 28 29 30 31 32 33 34 35 36 37 38 39 40 41 42 43 44 45 46 47 48 49 50

264
ASUS43 KMKX 120421
RWRWI

WISCONSIN REGIONAL WEATHER ROUNDUP
NATIONAL WEATHER SERVICE MILWAUKEE/SULLIVAN WI
1000 PM CST MON DEC 11 2017

NOTE: "FAIR" INDICATES FEW OR NO CLOUDS BELOW 12,000 FEET WITH NO
SIGNIFICANT WEATHER AND/OR OBSTRUCTIONS TO VISIBILITY.

WIZ001-002-006>008-014>016-023>028-120500-
NORTHWEST WISCONSIN

CITY           SKY/WX    TMP DP  RH WIND       PRES   REMARKS
SUPERIOR ARPT  PTCLDY    14   5  68 NW10G16   30.19R WCI   1
ASHLAND        MOCLDY    14   4  64 NW14      30.12S WCI  -1
HAYWARD        CLOUDY    15   7  70 VRB5      30.09S WCI   8
SIREN          CLEAR     15   7  71 N10       30.17R WCI   2
CUMBERLAND     MOCLDY    14   7  73 NW17      30.11S WCI  -3
RICE LAKE      MOCLDY    17   8  68 NW9       30.14R WCI   5
CHETEK         CLOUDY    16   9  72 N8        30.12R WCI   5
LADYSMITH      CLOUDY    17   8  70 NW14G23   30.09R WCI   3
EAU CLAIRE     PTCLDY    18   8  65 N12       30.11R WCI   5
MENOMONIE      CLEAR     19   9  65 NW10      30.14R WCI   7
NEW RICHMOND   CLEAR     17   7  66 NW17G24   30.17R WCI   1
OSCEOLA        CLEAR     17   8  68 NW7       30.21R WCI   7
$$

WIZ003>005-009-010-017-018-120500-
NORTH CENTRAL WISCONSIN

CITY           SKY/WX    TMP DP  RH WIND       PRES   REMARKS
MANITOWISH WTR CLOUDY    14   9  83 NW10G20   29.97R WCI   1
ARBOR VITAE    LGT SNOW  17  11  77 N13G33    29.96R WCI   3
WOODRUFF       LGT SNOW  17  11  77 N13G33    29.96R WCI   3
RHINELANDER    LGT SNOW  15  10  80 N9G22     29.95R WCI   3
EAGLE RIVER    LGT SNOW  15   8  76 N13       29.93R WCI   0
LAND O LAKES   LGT SNOW  14   8  77 N15       29.95R WCI  -1
PHILLIPS       CLOUDY    14   8  78 NW10G18   30.01R WCI   1
TOMAHAWK       CLOUDY    16   9  74 NW14G20   29.98R WCI   1
MEDFORD        CLOUDY    15   6  68 N13G20    30.00R WCI   1
MERRILL        FLURRIES  18  10  70 N17       29.98R WCI   2
$$

WIZ029-030-035-036-043>047-120500-
CENTRAL WISCONSIN

CITY           SKY/WX    TMP DP  RH WIND       PRES   REMARKS
WAUSAU         CLOUDY    19   7  59 N20G31    29.97R WCI   3
MOSINEE        MOCLDY    18  10  73 NW21G29   29.98R WCI   1
MARSHFIELD     MOCLDY    19   9  65 NW20      29.99R WCI   3
STEVENS POINT  PTCLDY    18   8  63 NW13G22   29.99R WCI   5
WAUPACA        MOCLDY    25  10  52 NW12G20   29.97R WCI  14
WAUTOMA        FLURRIES  23  11  60 NW16G26   29.98R WCI  10
WISC RAPIDS    MOCLDY    20   9  62 N18G29    30.01R WCI   5
CAMP DOUGLAS   MOCLDY    21  10  63 NW14      30.02R WCI   8
$$

WIZ011>013-019>022-031-037>040-048>050-120500-
NORTHEAST WISCONSIN

CITY           SKY/WX    TMP DP  RH WIND       PRES   REMARKS
ANTIGO         CLOUDY    15   9  76 NW17G23   29.93R WCI  -1
SHAWANO        PTCLDY    23   9  56 N17G26    29.94R WCI   9
OCONTO         MOCLDY    20  10  64 N7        29.93R WCI  11
STURGEON BAY   FLURRIES  22  12  65 NW20G33   29.89R WCI   7
GREEN BAY      FLURRIES  23  13  65 N14G23    29.93R WCI  11
MANITOWOC      CLOUDY    25  15  66 NW17G26   29.90R WCI  12
APPLETON       CLOUDY    21   7  53 N18G25    29.92R WCI   6
CLINTONVILLE   CLOUDY    21   9  58 N15G24    29.95R WCI   8
OSHKOSH        FLURRIES  24  13  62 NW21G31   29.93R WCI   9
$$

WIZ032>034-041-042-053>061-120500-
SOUTHWEST WISCONSIN

CITY           SKY/WX    TMP DP  RH WIND       PRES   REMARKS
LA CROSSE      PTCLDY    24  11  57 N15       30.10R WCI  11
SPARTA         PTCLDY    22  13  67 NW12G26   30.08R WCI  11
VIROQUA        MOCLDY    22  13  70 N20G26    30.03R WCI   6
BOSCOBEL       CLOUDY    28  14  55 N13G36    30.06R WCI  17
PRAIRIE DU CHI CLOUDY    28  14  57 NW20G25   30.07R WCI  14
PLATTEVILLE    MOCLDY    30  21  68 NW22G31   29.98R WCI  17
$$

WIZ056-057-062-063-064-067-068-120500-
SOUTH CENTRAL WISCONSIN

CITY           SKY/WX    TMP DP  RH WIND       PRES   REMARKS
REEDSBURG      CLOUDY    24  11  58 NW18G26   30.01R WCI  10
BARABOO/DELLS  FLURRIES  25  15  65 NW14G21   29.99R WCI  13
LONE ROCK      CLOUDY    28  17  63 NW20G26   30.02R WCI  15
MINERAL POINT  CLOUDY    30  19  64 NW22G31   29.97R WCI  17
MADISON        FLURRIES  28  18  66 N15G30    29.94R WCI  16
MIDDLETON      CLOUDY    29  18  62 NW22G30   29.95R WCI  16
WATERTOWN      CLOUDY    28  20  71 N18G29    29.91R WCI  16
MONROE         CLOUDY    32  21  64 N18G28    29.92R WCI  20
JANESVILLE     CLOUDY    32  21  64 NW13G18   29.91R WCI  22
$$

WIZ051-052-058>065-066-070>072-120500-
SOUTHEAST WISCONSIN

CITY           SKY/WX    TMP DP  RH WIND       PRES   REMARKS
MILWAUKEE      CLOUDY    32  22  66 NW15G24   29.86R WCI  22
WAUKESHA       CLOUDY    28  21  74 NW20G26   29.87S WCI  15
MILWAUKEE/TIMM CLOUDY    30  18  59 NW20G31   29.87R WCI  18
RACINE         CLOUDY    31  22  69 NW15G23   29.88R WCI  20
BURLINGTON     MOCLDY    41  37  87 NW13G22   29.88R
KENOSHA        CLOUDY    31  22  69 NW14G25   29.86R WCI  21
FOND DU LAC    CLOUDY    25  11  55 N21G32    29.93R WCI  11
SHEBOYGAN      CLOUDY    26  16  65 NW23G29   29.88R WCI  11
WEST BEND      CLOUDY    27  18  69 NW24G35   29.88R WCI  12
JUNEAU         CLOUDY    25  14  64 NW22G31   29.93R WCI  10
$$

LSZ147-162-120500-
LAKE SUPERIOR

STATION/POSITION TIME  TEMP    WIND        PRES    WAVE
                       AIR SEA DIR/SP/G            HT/PER
                 (UTC) (F)     (DEG/KT/KT) (MB)    (FT/S)
DEVILS ISLAND    0400   15     330/ 28/ 31 1021.5R
SAXON HARBOR     0400   20                 1019.0
$$

LMZ867-665-643>646-120500-
LAKE MICHIGAN

STATION/POSITION TIME  TEMP    WIND        PRES    WAVE
                       AIR SEA DIR/SP/G            HT/PER
                 (UTC) (F)     (DEG/KT/KT) (MB)    (FT/S)
NORTHPORT PIER   0359   24     320/ 29/ 35 1011.5R
KEWAUNEE LAKESHO 0400   23     340/ 16/ 26 1011.5
SHEBOYGAN LAKESH 0400   26     330/ 27/ 37 1012.7R
PORT WASHINGTON  0400   28     320/ 11/ 24 1012.9
MILWAUKEE LAKESH 0400   31     330/ 14/ 17   N/A
KENOSHA   LAKESH 0400   31     320/ 12/ 22 1011.5
$$

TC  - TEMPERATURE IN CELSIUS
VSB - VISIBILITY IN STATUTE MILES
WCI - WIND CHILL INDEX
HX  - HEAT INDEX





USA.gov is the U.S. government's official web portal to all federal, state and local government web resources and services.